TimeEST,TemperatureF,Dew PointF,Humidity,Sea Level PressureIn,VisibilityMPH,Wind Direction,Wind SpeedMPH,Gust SpeedMPH,PrecipitationIn,Events,Conditions,WindDirDegrees,DateUTC
12:15 AM,30.2,30.2,100,30.06,7.0,Calm,Calm,-,N/A,,Clear,0,2012-12-29 05:15:00
12:35 AM,30.2,30.2,100,30.05,7.0,Calm,Calm,-,N/A,,Clear,0,2012-12-29 05:35:00
1:00 AM,30.2,30.2,100,30.05,7.0,Calm,Calm,-,N/A,,Clear,0,2012-12-29 06:00:00
1:20 AM,32.0,30.2,93,30.03,7.0,Calm,Calm,-,N/A,,Scattered Clouds,0,2012-12-29 06:20:00
1:40 AM,32.0,30.2,93,30.03,7.0,Calm,Calm,-,N/A,,Mostly Cloudy,0,2012-12-29 06:40:00
2:00 AM,32.0,30.2,93,30.03,7.0,Calm,Calm,-,N/A,,Overcast,0,2012-12-29 07:00:00
2:25 AM,32.0,30.2,93,30.03,7.0,Calm,Calm,-,N/A,,Overcast,0,2012-12-29 07:25:00
2:45 AM,32.0,30.2,93,30.03,7.0,Calm,Calm,-,N/A,,Overcast,0,2012-12-29 07:45:00
3:05 AM,32.0,30.2,93,30.02,7.0,Calm,Calm,-,N/A,,Overcast,0,2012-12-29 08:05:00
3:30 AM,32.0,30.2,93,29.99,7.0,ENE,4.6,-,N/A,,Overcast,60,2012-12-29 08:30:00
3:50 AM,32.0,30.2,93,29.96,7.0,NNE,3.5,-,N/A,,Overcast,20,2012-12-29 08:50:00
4:10 AM,32.0,30.2,93,29.95,7.0,NNW,3.5,-,N/A,,Overcast,330,2012-12-29 09:10:00
4:30 AM,32.0,30.2,93,29.94,7.0,NNW,3.5,-,N/A,,Overcast,340,2012-12-29 09:30:00
4:55 AM,32.0,30.2,93,29.92,7.0,Calm,Calm,-,N/A,,Overcast,0,2012-12-29 09:55:00
5:15 AM,32.0,30.2,93,29.90,7.0,North,4.6,-,N/A,,Overcast,10,2012-12-29 10:15:00
5:35 AM,32.0,30.2,93,29.87,7.0,NNE,6.9,-,N/A,,Overcast,20,2012-12-29 10:35:00
5:50 AM,32.0,30.2,93,29.88,7.0,NNW,3.5,-,N/A,,Overcast,330,2012-12-29 10:50:00
6:45 AM,32.0,30.2,93,29.85,5.0,NNE,3.5,-,N/A,Snow,Light Snow,30,2012-12-29 11:45:00
7:45 AM,30.2,30.2,100,29.82,5.0,North,6.9,-,N/A,Snow,Snow,10,2012-12-29 12:45:00
8:45 AM,32.0,32.0,100,29.82,5.0,NE,4.6,-,N/A,Snow,Light Snow,50,2012-12-29 13:45:00
9:51 AM,33.8,32.0,93,29.78,2.5,Calm,Calm,-,N/A,Snow,Snow,0,2012-12-29 14:51:00
10:24 AM,32.0,32.0,100,29.77,0.4,Calm,Calm,-,N/A,Snow,Heavy Snow,0,2012-12-29 15:24:00
10:47 AM,33.8,33.8,100,29.75,0.4,Calm,Calm,-,N/A,Snow,Heavy Snow,0,2012-12-29 15:47:00
11:45 AM,35.6,33.8,93,29.72,0.4,Calm,Calm,-,N/A,Snow,Snow,0,2012-12-29 16:45:00
12:50 PM,35.6,33.8,93,29.67,0.8,Calm,Calm,-,N/A,Snow,Snow,0,2012-12-29 17:50:00
1:50 PM,37.4,35.6,93,29.62,1.0,Calm,Calm,-,N/A,Rain,Light Rain,0,2012-12-29 18:50:00
2:47 PM,37.4,33.8,87,29.61,4.0,West,4.6,-,N/A,,Overcast,260,2012-12-29 19:47:00
3:55 PM,35.6,33.8,93,29.61,7.0,West,11.5,-,N/A,,Mostly Cloudy,280,2012-12-29 20:55:00
4:25 PM,35.6,33.8,93,29.61,7.0,WNW,8.1,-,N/A,,Mostly Cloudy,290,2012-12-29 21:25:00
4:50 PM,35.6,35.6,100,29.63,7.0,WNW,11.5,-,N/A,,Mostly Cloudy,300,2012-12-29 21:50:00
5:45 PM,37.4,33.8,87,29.65,7.0,WNW,17.3,23.0,N/A,,Overcast,300,2012-12-29 22:45:00
6:45 PM,37.4,32.0,81,29.69,7.0,WNW,17.3,28.8,N/A,,Overcast,300,2012-12-29 23:45:00
7:45 PM,37.4,30.2,75,29.72,7.0,NW,20.7,28.8,N/A,,Overcast,320,2012-12-30 00:45:00
8:05 PM,35.6,32.0,87,29.73,10.0,NW,19.6,26.5,N/A,,Overcast,310,2012-12-30 01:05:00
8:30 PM,35.6,30.2,81,29.74,10.0,NW,17.3,28.8,N/A,,Overcast,310,2012-12-30 01:30:00
8:50 PM,35.6,30.2,81,29.76,10.0,NW,17.3,21.9,N/A,,Overcast,310,2012-12-30 01:50:00
9:10 PM,35.6,30.2,81,29.77,10.0,WNW,16.1,26.5,N/A,,Overcast,300,2012-12-30 02:10:00
9:30 PM,35.6,30.2,81,29.77,10.0,WNW,16.1,23.0,N/A,,Overcast,300,2012-12-30 02:30:00
9:55 PM,35.6,30.2,81,29.78,10.0,NW,21.9,25.3,N/A,,Overcast,310,2012-12-30 02:55:00
10:15 PM,35.6,30.2,81,29.80,10.0,WNW,19.6,26.5,N/A,,Overcast,290,2012-12-30 03:15:00
10:35 PM,35.6,30.2,81,29.80,10.0,WNW,15.0,21.9,N/A,,Overcast,300,2012-12-30 03:35:00
10:55 PM,35.6,30.2,81,29.81,10.0,NW,18.4,32.2,N/A,,Mostly Cloudy,310,2012-12-30 03:55:00
11:20 PM,35.6,30.2,81,29.83,10.0,NW,27.6,33.4,N/A,,Overcast,310,2012-12-30 04:20:00
11:40 PM,35.6,28.4,75,29.84,10.0,WNW,21.9,27.6,N/A,,Overcast,300,2012-12-30 04:40:00